Wind_Speed
11 12 7 7 8 10 11 13 12 4 7 8 14 14 15 18 26 15 22 20 27 20 18 19 19 18 17 13 12 13 13 13 13 10 10 9 10 9 7 7 5 5 4
14 12 12 9 8 12 13 10 6 6 6 15 12 12 10 6 16 19 6 18 21 22 20 22 22 21 20 18 15 14 13 14 14 12 12 10 10 9 9 8 7 6 6
16 15 12 12 5 8 8 10 7 7 9 9 15 6 10 6 5 17 12 12 21 22 20 21 22 21 21 21 19 18 17 17 15 14 13 12 12 11 9 9 8 7 7
14 14 10 9 8 5 10 10 8 7 10 10 6 10 11 5 4 12 16 9 17 20 22 22 24 24 22 21 21 21 20 18 17 16 15 14 13 12 11 10 10 10 10
13 14 12 10 8 7 8 9 7 6 9 7 8 7 7 9 6 9 16 16 19 21 18 22 23 23 24 23 24 26 23 22 20 18 18 17 16 14 14 13 13 13 14
13 16 13 9 8 10 11 8 8 7 12 10 7 0 5 6 2 9 14 19 17 21 19 17 18 22 23 23 26 28 25 24 22 22 20 20 18 18 17 16 16 16 15
16 12 13 11 12 12 14 10 8 11 14 10 4 4 11 7 7 12 6 13 15 19 21 21 22 23 23 25 27 28 27 28 26 25 24 24 23 22 21 19 18 18 17
16 13 11 11 10 14 13 10 6 8 20 14 4 3 1 4 6 13 7 8 12 21 23 23 20 18 22 26 30 30 29 30 29 27 27 26 24 24 23 22 21 20 19
14 17 14 14 12 13 14 13 9 9 17 7 5 5 2 1 6 12 13 22 7 12 20 24 21 23 23 23 23 32 35 35 33 30 30 29 28 27 26 25 25 24 23
15 15 15 18 16 13 16 12 13 12 9 13 7 6 18 11 3 2 6 17 13 13 8 20 19 25 23 22 22 22 25 33 38 36 35 34 33 32 30 29 28 27 26
17 16 18 18 16 16 18 15 14 9 10 9 3 10 9 9 10 3 4 5 14 13 17 14 15 20 22 21 25 28 28 27 29 39 42 39 36 35 33 31 31 29 28
15 16 17 19 19 20 19 16 13 12 10 12 6 7 9 6 14 8 3 4 6 10 10 14 18 18 23 23 23 27 24 30 33 31 35 43 42 40 37 32 30 29 29
15 16 18 17 17 18 18 16 15 11 11 10 10 8 5 8 4 5 8 6 2 9 7 19 23 25 21 26 26 24 22 25 24 27 31 33 38 39 38 37 34 33 32
15 14 15 17 16 16 17 17 16 14 14 14 13 11 11 8 6 19 11 8 2 11 6 10 19 24 19 29 28 29 24 25 24 24 25 28 32 35 37 37 37 35 32
16 15 15 14 16 15 16 18 19 18 18 12 14 14 14 11 14 21 17 14 16 3 2 11 4 23 31 34 33 25 27 24 22 22 23 26 28 30 31 33 33 32 31
8 12 13 13 14 16 17 18 18 20 20 18 16 18 15 15 14 14 13 16 12 12 2 11 13 14 16 34 17 17 27 22 20 23 24 25 28 30 30 31 31 31 31
7 7 10 12 14 16 16 17 19 22 18 20 19 20 16 13 18 20 18 13 11 18 9 2 13 15 9 8 16 13 23 17 16 20 24 27 27 29 31 32 31 31 32
5 9 12 13 15 14 16 19 19 20 21 22 20 21 22 16 18 20 20 23 20 19 13 10 13 14 19 24 23 21 17 16 20 22 22 28 33 30 31 34 34 33 32
5 7 8 12 14 16 17 19 20 23 24 22 22 23 23 22 24 21 18 19 18 17 16 19 18 21 17 19 20 18 19 20 22 20 23 24 28 33 29 28 31 33 33
7 9 7 7 11 13 15 18 18 20 22 23 24 24 23 24 25 25 22 23 26 26 24 18 16 21 18 18 21 23 23 22 24 19 23 22 23 32 36 31 29 31 33
9 10 11 11 11 11 12 13 15 18 17 20 25 27 26 27 29 25 26 26 25 26 24 20 22 22 22 22 18 13 18 17 15 20 23 13 18 20 25 26 22 20 25
11 12 12 13 13 12 9 13 8 10 13 16 20 22 24 28 30 31 31 29 30 27 24 21 23 23 22 23 27 19 13 16 4 16 12 19 16 24 32 32 21 23 22
11 12 13 14 15 15 15 16 15 15 15 17 18 18 19 19 23 26 27 31 33 35 36 31 25 27 27 28 20 19 22 19 18 14 11 9 14 36 31 21 32 24 15
12 13 14 14 15 16 17 19 19 20 18 19 21 22 23 23 22 24 27 27 26 28 32 36 41 42 33 32 27 23 24 28 27 24 21 14 18 29 24 24 20 22 16
16 16 16 16 14 14 14 14 16 19 17 21 22 22 23 24 25 25 23 26 25 28 26 29 33 36 38 42 42 30 27 24 21 22 21 25 25 29 27 27 26 28 19
17 17 18 19 20 21 24 24 19 18 19 21 22 23 24 26 30 32 33 32 27 27 22 25 30 34 31 38 41 40 36 25 22 16 22 26 27 27 18 21 26 38 37
Wind_Direction
228 226 246 258 276 283 277 274 277 252 283 256 234 219 233 179 210 223 216 219 226 230 207 195 193 201 206 198 197 200 197 190 187 193 194 191 186 187 200 202 214 224 242
224 225 221 254 265 300 267 276 302 253 244 273 255 236 238 253 192 203 187 215 220 218 199 196 198 204 208 209 205 202 197 207 201 205 196 209 208 216 215 225 229 233 255
219 228 237 230 278 284 290 277 274 241 254 242 232 294 256 220 165 178 184 214 209 217 198 194 195 200 203 210 211 209 210 218 213 208 213 213 219 226 237 237 242 255 263
210 212 219 210 263 294 285 280 269 285 270 278 287 313 263 227 202 189 172 204 210 209 203 196 201 205 207 210 212 212 212 219 217 216 223 221 223 233 247 249 253 259 267
204 205 216 227 243 274 285 286 295 275 302 297 299 277 260 228 223 208 195 190 188 192 206 204 203 205 207 212 212 211 212 218 218 223 225 226 229 240 245 248 256 265 271
207 207 214 211 228 266 265 269 290 293 302 305 284 259 248 273 223 207 206 206 192 179 207 206 207 211 211 208 211 209 211 220 220 224 227 232 237 243 244 248 258 261 267
212 217 219 223 227 251 271 274 310 312 308 294 341 72 295 309 290 235 248 214 184 191 189 210 208 206 208 202 205 208 213 221 225 230 235 236 240 244 242 247 258 259 264
215 222 219 228 234 242 258 267 281 321 300 313 248 108 48 330 286 277 338 283 189 189 188 199 202 195 207 207 206 210 218 225 227 233 233 233 237 239 242 251 255 254 263
234 231 225 232 240 240 249 253 240 245 257 298 171 161 125 63 355 10 294 317 309 185 194 197 203 203 199 216 220 224 225 226 227 232 232 234 236 237 244 253 256 258 263
242 242 236 232 234 240 240 259 257 241 251 276 327 356 73 68 38 63 224 264 303 272 254 201 206 198 206 203 215 226 231 232 229 228 231 233 236 241 247 254 256 259 264
246 238 224 231 238 239 239 247 254 253 260 277 5 273 123 179 221 202 259 245 265 271 266 271 233 211 217 222 220 226 227 234 236 235 234 235 238 243 248 253 256 260 265
239 234 228 225 228 234 236 240 240 251 262 280 271 278 152 159 216 180 180 285 271 289 280 274 259 254 226 220 219 225 228 231 236 239 239 238 239 243 246 249 253 258 265
225 226 226 223 225 232 231 237 237 250 251 262 279 294 312 171 132 195 150 171 244 288 332 305 296 281 241 223 221 225 235 236 234 238 240 240 241 242 244 247 252 259 264
215 214 213 219 218 223 220 222 228 234 243 244 241 252 276 271 206 215 225 152 233 229 125 235 300 282 263 241 232 224 224 234 236 240 241 242 243 244 245 247 251 256 261
219 213 209 209 217 221 227 229 226 236 239 252 250 238 244 260 266 224 239 213 200 312 121 190 192 300 266 277 238 230 226 223 234 241 245 244 243 244 245 247 249 253 257
193 206 214 212 221 221 226 232 237 242 240 242 248 250 246 241 274 302 260 239 256 258 190 210 232 223 262 284 261 243 241 229 239 241 246 248 249 248 246 248 250 253 256
261 241 229 228 233 230 229 231 238 246 245 244 246 261 270 263 263 275 291 298 294 247 234 194 239 207 300 263 267 237 240 236 249 254 254 247 251 252 251 250 251 255 259
282 264 253 249 244 242 243 240 236 243 251 248 253 254 259 258 256 257 266 282 289 285 297 285 276 222 191 210 253 241 245 249 253 247 248 247 246 247 247 248 249 251 256
330 291 272 265 265 260 254 249 250 247 248 254 254 253 253 255 260 261 252 265 280 291 285 259 264 265 270 263 265 254 246 244 249 258 269 263 252 246 245 249 253 254 256
340 329 321 292 281 273 263 255 250 249 251 256 258 259 261 259 258 256 254 257 267 272 276 277 251 265 262 278 249 232 232 243 246 255 262 278 260 244 243 247 254 259 262
317 318 316 312 311 306 279 270 265 264 261 260 261 260 261 261 260 263 259 254 255 260 266 273 265 249 248 253 262 260 232 233 256 267 264 282 236 242 246 244 254 264 269
317 313 307 305 304 296 282 326 313 289 283 281 281 279 268 265 264 261 260 259 256 250 253 255 263 263 266 251 249 252 272 283 311 273 252 242 350 293 250 244 236 277 268
310 305 303 301 302 302 293 303 309 300 288 286 285 287 277 274 271 269 267 265 263 260 255 251 254 255 262 262 265 271 267 261 261 263 277 235 227 241 247 255 251 247 267
321 310 303 298 295 293 293 293 294 295 292 282 278 277 278 281 281 278 277 268 267 265 264 263 253 255 254 262 264 256 263 271 274 266 252 258 236 230 243 238 235 245 241
331 324 316 312 315 319 315 313 308 296 288 284 283 282 279 277 276 274 278 273 269 266 266 266 263 264 259 259 257 257 253 254 258 253 237 236 240 240 228 225 225 220 234
310 318 316 314 311 312 309 302 294 301 287 285 285 285 281 279 279 275 266 263 265 267 272 272 267 265 266 263 260 254 249 244 245 256 244 235 235 233 235 224 226 219 229
Height
838 839 839 840 838 837 835 836 839 840 840 839 840 838 833 830 834 847 844 846 849 853 856 860 863 867 871 874 877 879 882 884 887 889 891 892 894 895 896 897 898 899 899
837 837 838 838 837 835 833 833 837 837 832 834 836 835 832 833 837 844 841 842 848 850 852 855 859 863 868 872 875 878 880 883 885 887 889 891 893 895 896 897 898 898 898
834 835 835 835 835 834 832 831 833 834 832 831 830 829 829 831 834 837 839 840 845 848 848 850 854 858 863 868 872 875 878 881 883 885 887 889 892 893 894 896 896 897 898
832 833 834 835 835 833 831 827 828 826 830 829 828 823 828 830 835 838 840 841 847 848 847 847 850 855 860 864 867 871 875 879 881 883 885 887 890 891 892 894 894 895 896
831 832 834 834 833 831 828 825 825 826 826 826 827 827 827 829 832 838 841 841 841 843 843 845 848 851 854 858 862 866 871 875 878 880 882 885 887 888 890 891 892 893 892
830 831 832 832 832 830 826 825 827 829 829 829 826 827 827 828 831 833 836 840 838 837 841 843 845 848 850 853 857 861 865 870 873 876 878 881 883 885 886 887 889 890 890
829 830 831 830 830 828 826 828 832 830 826 826 829 829 829 828 832 832 832 835 834 835 835 838 840 843 845 849 853 858 861 864 868 871 873 875 878 881 882 883 884 885 886
827 827 828 829 828 827 826 829 831 829 818 816 830 826 828 830 830 832 833 834 832 831 834 835 836 838 841 845 849 852 856 860 862 864 867 870 873 875 878 879 879 880 881
823 824 826 826 825 824 825 828 831 830 825 823 825 826 834 838 837 833 830 832 832 833 835 837 839 840 839 840 845 848 850 853 856 859 861 864 866 869 871 873 874 875 876
818 821 823 823 822 822 822 826 829 830 830 827 830 830 827 833 837 842 840 832 834 833 835 835 838 840 841 839 839 842 846 847 850 853 855 856 859 861 865 867 869 870 871
815 817 818 819 820 819 820 822 824 825 824 826 825 826 824 823 830 842 837 832 834 835 833 835 837 836 835 837 839 838 838 841 843 846 849 851 852 854 857 860 863 865 865
811 813 815 816 817 817 817 819 822 822 820 818 824 824 821 815 828 828 832 830 834 832 832 831 832 833 831 830 830 832 833 834 837 840 842 845 847 849 851 854 856 859 860
809 810 812 813 814 815 816 817 819 820 820 819 818 817 819 821 826 827 825 831 834 830 830 827 828 829 829 828 826 826 827 829 831 834 837 840 842 845 846 848 850 853 855
806 808 809 811 812 813 814 816 818 819 819 820 820 819 820 821 819 821 820 821 818 830 826 831 820 822 823 826 823 820 820 823 825 828 832 834 837 839 842 843 844 847 849
804 805 807 809 810 812 813 814 814 816 817 818 819 819 818 818 817 816 815 816 820 822 824 827 816 815 817 820 820 824 817 816 820 823 826 829 831 833 836 838 839 841 843
803 804 806 807 808 809 809 810 811 812 813 815 816 816 816 815 815 814 813 813 812 813 818 817 814 816 803 804 816 808 823 812 813 818 820 823 826 829 830 832 833 834 836
802 802 804 805 806 806 807 807 808 807 809 810 811 812 813 814 813 813 811 811 811 810 809 811 814 817 813 799 806 816 818 811 809 811 814 817 819 822 824 825 827 828 830
800 800 801 802 803 804 804 805 804 805 804 805 806 808 809 810 810 810 809 806 805 806 805 804 807 809 808 806 804 803 805 805 805 804 806 807 809 812 814 816 818 819 821
798 798 799 800 801 801 801 802 802 802 801 800 800 801 803 805 805 806 806 804 802 800 802 801 801 800 799 798 799 800 799 800 801 801 801 801 803 804 806 808 810 812 813
798 798 798 798 798 797 797 797 798 798 798 797 797 797 798 799 800 801 802 803 803 800 799 800 799 798 798 797 795 794 794 795 794 795 796 797 800 801 802 804 805 805 805
798 798 797 796 795 795 792 792 794 794 793 794 793 793 793 793 794 795 796 796 798 798 795 794 794 793 788 789 790 791 790 789 790 792 794 795 794 797 799 799 799 797 796
796 796 795 794 793 793 790 791 790 790 789 790 789 788 788 787 787 787 787 788 790 790 791 791 789 788 787 784 783 785 785 786 786 789 790 789 783 792 794 787 789 789 787
795 794 793 792 790 790 789 789 788 787 786 785 785 784 783 782 781 780 780 780 781 782 782 783 782 781 782 781 782 782 782 782 783 788 786 785 782 784 786 782 780 779 778
793 792 790 789 788 787 786 785 785 783 782 781 781 780 780 778 777 777 775 774 773 773 773 773 773 771 773 774 775 778 779 777 777 781 784 781 782 778 779 777 774 774 770
790 789 788 787 785 784 783 782 781 779 778 776 775 775 774 773 772 772 770 767 766 765 766 766 765 765 765 766 768 770 771 773 769 771 776 776 774 773 770 769 769 769 767
789 788 785 784 783 781 779 778 777 776 774 772 771 769 768 767 765 764 763 762 759 758 759 759 758 758 757 756 758 759 761 763 764 764 767 770 768 769 767 764 761 761 761